Regional Weather Roundup
Issued by NWS

Home | Current Version | Previous Version | Graphics & Text | Print | Product List | Glossary On
Versions: 1 2 3 4 5 6 7 8 9 10 11 12 13 14 15 16 17 18 19 20 21 22 23 24 25 26 27 28 29 30 31 32 33 34 35 36 37 38 39 40 41 42 43 44 45 46 47 48 49 50
000
ASUS43 KFSD 192310
RWRSD

WEATHER ROUNDUP FOR SOUTH DAKOTA
NATIONAL WEATHER SERVICE SIOUX FALLS SD
600 PM CDT SUN OCT 19 2014

NOTE: "FAIR" INDICATES FEW OR NO CLOUDS BELOW 12,000 FEET WITH NO
SIGNIFICANT WEATHER AND/OR OBSTRUCTIONS TO VISIBILITY.


SDZ001>005-009-010-012>017-200000-
NORTHWEST AND NORTH CENTRAL SOUTH DAKOTA

CITY           SKY/WX    TMP DP  RH WIND       PRES   REMARKS
BUFFALO          N/A     69  35  28 N7        29.97S
FAITH            N/A     68  35  29 NW15      30.00R
MOBRIDGE       CLEAR     72  43  35 N10       29.93R
$$

SDZ012>016-024>037-041>051-057-063-072>074-200000-
SOUTHWEST AND SOUTH CENTRAL SOUTH DAKOTA

CITY           SKY/WX    TMP DP  RH WIND       PRES   REMARKS
RAPID CTY ARPT CLEAR     70  41  34 N8        30.04R
PIERRE         CLEAR     73  37  27 NW12      29.94R
CUSTER         SUNNY     62  37  39 E10       30.13R
ELLSWORTH AFB  CLEAR     70  40  33 N10       30.04S
PHILIP         CLEAR     74  39  28 N13       29.98R
PINE RIDGE     CLEAR     73  36  25 CALM      30.04S
SPEARFISH      FAIR      66  41  39 NE7       30.08R
WINNER         FAIR      76  35  22 NW14      29.96S
$$

SDZ004>011-016>023-039-040-200000-
NORTHEAST SOUTH DAKOTA

CITY           SKY/WX    TMP DP  RH WIND       PRES   REMARKS
ABERDEEN       CLEAR     71  39  31 NW15      29.90S
WATERTOWN      CLEAR     67  39  35 NW12      29.89R
SISSETON         N/A     69  38  32 N15G24    29.85R
$$

SDZ017-020-022-023-036>040-048>070-200000-
SOUTHEAST SOUTH DAKOTA

CITY           SKY/WX    TMP DP  RH WIND       PRES   REMARKS
SIOUX FALLS    CLEAR     69  41  36 NW9       29.89R
HURON          CLEAR     73  38  27 N15       29.89R
CHAMBERLAIN    CLEAR     73  35  24 NW13      29.94R
MITCHELL       CLEAR     76  38  25 N13       29.89S
YANKTON        CLEAR     72  46  40 NW8       29.90R
$$

ABBREVIATIONS USED IN REMARKS
   TC - TEMPERATURE IN CELSIUS
  WCI - WIND CHILL INDEX
   HX - HEAT INDEX
  VSB - VISIBILITY




USA.gov is the U.S. government's official web portal to all federal, state and local government web resources and services.